{"data":{"norad_id":65742,"intl_designator":"2025-216J","name":"STARLINK-35316","alt_names":[],"object_type":"PAYLOAD","status":"ACTIVE","operator":null,"country":"US","launch_date":"2025-09-25","launch_site_code":"AFETR","launch_vehicle":null,"mission":null,"orbit_class":"UNKNOWN","rcs_meters":null,"size_class":null,"mass_kg":null,"dimensions":null,"purposes":["comms"],"wikipedia_slug":null,"has_3d_model":false,"image_url":null,"decayed_at":null,"tle_current":{"epoch":"2026-09-20T22:41:11.234688Z","epoch_age_seconds":70125,"freshness":"FRESH","line1":"1 65742U 25216J   26263.94526892  .00022479  00000+0  67445-3 0  9996","line2":"2 65742  53.1567 143.4299 0001128  84.7554 275.3578 15.34399831 55384","mean_motion":15.34399831,"eccentricity":0.0001128,"inclination_deg":53.1567,"raan_deg":143.4299,"arg_perigee_deg":84.7554,"mean_anomaly_deg":275.3578,"bstar":0.00067445,"rev_number":5538,"period_min":93.8477684178,"perigee_km":461.93209567501,"apogee_km":463.47538934652,"semimajor_km":6840.8407425108,"source":"CELESTRAK","updated_at":"2026-09-21T09:00:35.692892Z"}}}